Location: Black Swamp Observatory
(41.3920°N, 84.1250°W)
Time: 15:50:06
(UTC-04:00)

Amateur Radio Satellites - All Passes

Search period start: 29 August 2016 15:20
Search period end: 30 August 2016 15:20
Location: Black Swamp Observatory, 41.3920°N, 84.1250°W

Satellite Date Start Highest point End Downlink Frequencies (MHz)
Time Altitude Azimuth
SPROUT 29 Aug 15:27:09 15:28:58 13° 298° (WNW) 15:30:47 437.525
Oscar 19 29 Aug 15:31:45 15:35:14 18° 268° (W) 15:38:44 437.125/150
ITUPSAT 1 29 Aug 15:33:42 15:38:01 33° 97° (E) 15:42:17 437.325
TISAT 1 29 Aug 15:37:12 15:41:06 38° 289° (WNW) 15:44:57 437.305
ISS 29 Aug 15:38:13 15:41:30 69° 218° (SW) 15:44:45 145.825
SWISSCUBE 29 Aug 16:05:21 16:10:08 79° 102° (ESE) 16:14:54 437.505
O/OREOS (USA 219) 29 Aug 16:08:40 16:11:05 14° 308° (NW) 16:13:30 437.305
AO-85 29 Aug 16:15:42 16:17:20 12° 253° (WSW) 16:18:56 145.980
MOZHAYETS 4 29 Aug 16:19:11 16:21:49 15° 91° (E) 16:24:25
HORYU 2 29 Aug 16:22:02 16:22:35 10° 60° (ENE) 16:23:07 437.375
BEESAT 29 Aug 16:22:16 16:27:03 78° 286° (WNW) 16:31:48 436.000
AO-7 29 Aug 16:47:15 16:55:33 65° 256° (WSW) 17:03:51 29.400- 29.500
ITAMSAT 1 29 Aug 16:49:32 16:53:38 24° 266° (W) 16:57:46 435.822/435.867
YUBILEINY 29 Aug 16:55:59 17:03:04 26° 66° (ENE) 17:10:04 435.215
ITUPSAT 1 29 Aug 17:11:44 17:15:42 27° 293° (WNW) 17:19:41 437.325
NOAA 18 29 Aug 17:25:35 17:27:10 11° 55° (NE) 17:28:44 137.9125
BRITE-PL 29 Aug 17:28:19 17:32:08 23° 64° (ENE) 17:36:11 437.365/2234.400
KKS-1 29 Aug 17:33:57 17:38:24 69° 102° (ESE) 17:42:49 437.445
CUBESAT XI-V 29 Aug 17:44:36 17:47:27 16° 91° (E) 17:50:16 437.345
SWISSCUBE 29 Aug 17:45:22 17:47:16 12° 300° (WNW) 17:49:10 437.505
Cosmos 2504 29 Aug 17:48:35 17:52:49 16° 63° (ENE) 17:57:02 435.465 / 435.565
HORYU 2 29 Aug 17:53:58 17:58:26 86° 254° (WSW) 18:02:55 437.375
Cubesat XI-IV 29 Aug 17:54:07 17:57:59 21° 63° (ENE) 18:01:51 437.490
MOZHAYETS 4 29 Aug 17:54:49 17:59:17 53° 287° (WNW) 18:03:44
NOAA 15 29 Aug 17:58:58 18:03:24 29° 66° (ENE) 18:07:52 137.62
STARS 29 Aug 18:04:07 18:08:32 71° 103° (ESE) 18:12:53 437.465
CUTE-I 29 Aug 18:04:45 18:09:04 26° 65° (ENE) 18:13:23 437.470
DOVE 4 29 Aug 18:27:58 18:31:37 19° 63° (ENE) 18:35:17 437.250
GOMX 1 29 Aug 18:30:32 18:35:19 40° 70° (ENE) 18:40:22 467.674
BEESAT 2 29 Aug 18:31:08 18:34:25 24° 47° (NE) 18:37:42 435.950
Cosmos 2491 29 Aug 18:33:28 18:41:46 52° 89° (E) 18:50:09 435.465 / 435.565
HO-68 29 Aug 18:40:10 18:43:33 14° 51° (NE) 18:46:54 435.675
BEESAT 3 29 Aug 18:44:33 18:48:29 57° 55° (NE) 18:52:21 437.485
LilacSat-2 29 Aug 18:45:01 18:48:44 49° 74° (ENE) 18:52:27 437.200
AO-7 29 Aug 18:48:15 18:49:49 11° 274° (W) 18:51:22 29.400- 29.500
YUBILEINY 29 Aug 18:51:56 19:00:37 69° 267° (W) 19:09:14 435.215
NOAA 18 29 Aug 19:01:21 19:06:52 75° 73° (ENE) 19:12:24 137.9125
BRITE-PL 29 Aug 19:05:32 19:10:13 46° 263° (W) 19:15:19 437.365/2234.400
KKS-1 29 Aug 19:12:31 19:14:23 13° 299° (WNW) 19:16:15 437.445
CUBESAT XI-V 29 Aug 19:20:32 19:25:08 53° 287° (WNW) 19:29:43 437.345
Cubesat XI-IV 29 Aug 19:32:25 19:37:39 54° 260° (W) 19:42:53 437.490
NOAA 15 29 Aug 19:38:13 19:43:01 36° 262° (W) 19:47:53 137.62
PCSat 29 Aug 19:39:03 19:41:32 13° 38° (NE) 19:44:00 145.827
Cosmos 2504 29 Aug 19:40:00 19:47:15 87° 263° (W) 19:54:27 435.465 / 435.565
STARS 29 Aug 19:42:41 19:44:16 12° 299° (WNW) 19:45:53 437.465
CUTE-I 29 Aug 19:43:50 19:48:52 42° 261° (W) 19:53:55 437.470
STRAND 1 29 Aug 19:55:52 19:59:30 19° 93° (E) 20:03:07 437.568
DOVE 4 29 Aug 20:03:40 20:08:47 59° 260° (W) 20:14:03 437.250
BEESAT 2 29 Aug 20:08:40 20:12:18 34° 244° (WSW) 20:15:55 435.950
GOMX 1 29 Aug 20:09:15 20:13:30 26° 268° (W) 20:17:58 467.674
SEEDS 29 Aug 20:11:21 20:14:43 24° 68° (ENE) 20:18:06 437.485
AIST 1 29 Aug 20:14:53 20:18:14 21° 72° (ENE) 20:21:34
LilacSat-2 29 Aug 20:22:04 20:23:18 11° 269° (W) 20:24:33 437.200
HO-68 29 Aug 20:22:51 20:29:58 69° 70° (ENE) 20:37:07 435.675
BEESAT 3 29 Aug 20:23:57 20:25:39 12° 251° (WSW) 20:27:19 437.485
UWE-3 29 Aug 20:27:14 20:29:43 15° 64° (ENE) 20:32:09 435.000/436.395/437.385
CINEMA 3 29 Aug 20:28:26 20:33:27 77° 76° (ENE) 20:38:25 145.822/145.860
Cosmos 2491 29 Aug 20:31:07 20:38:53 35° 290° (WNW) 20:46:45 435.465 / 435.565
CUBEBUG 2 29 Aug 20:32:50 20:36:36 25° 68° (ENE) 20:40:18 437.445
AAUSAT CUBESAT 2 29 Aug 20:36:04 20:39:25 25° 69° (ENE) 20:42:47 437.432
CANX-2 29 Aug 20:36:30 20:40:41 79° 77° (ENE) 20:44:53 2200.000
ZACube-1 29 Aug 20:37:46 20:39:18 12° 63° (ENE) 20:40:50 437.345
CUTE 1.7 + AOD 2 29 Aug 20:42:09 20:46:20 79° 76° (ENE) 20:50:33 437.475
NOAA 18 29 Aug 20:45:09 20:48:04 14° 270° (W) 20:51:00 137.9125
COMPASS 1 29 Aug 20:45:47 20:49:38 40° 72° (ENE) 20:53:31 437.405
YUBILEINY 29 Aug 20:52:49 20:55:38 12° 287° (WNW) 20:58:26 435.215
AIST 2 29 Aug 21:00:53 21:04:46 35° 51° (NE) 21:08:37 435.215
PRISM 29 Aug 21:16:41 21:18:12 12° 91° (E) 21:19:43 437.425
PCSat 29 Aug 21:20:36 21:26:01 66° 58° (ENE) 21:31:23 145.827
STRAND 1 29 Aug 21:34:01 21:38:56 50° 289° (WNW) 21:43:51 437.568
Cosmos 2504 29 Aug 21:36:22 21:39:23 13° 283° (WNW) 21:42:24 435.465 / 435.565
Oscar 11 29 Aug 21:37:28 21:41:36 48° 73° (ENE) 21:45:45 145.826/435.025
SEEDS 29 Aug 21:46:46 21:50:19 27° 264° (W) 21:53:53 437.485
FUNcube-1 29 Aug 21:47:51 21:52:12 60° 75° (ENE) 21:56:29 145.935
AIST 1 29 Aug 21:51:57 21:55:54 33° 269° (W) 21:59:48
DELFI C3 29 Aug 21:55:30 21:58:56 29° 70° (ENE) 22:02:24 145.870
UWE-3 29 Aug 22:01:13 22:05:43 58° 260° (W) 22:10:08 435.000/436.395/437.385
CUBEBUG 2 29 Aug 22:08:50 22:13:04 33° 263° (W) 22:17:12 437.445
CINEMA 3 29 Aug 22:09:05 22:11:04 12° 271° (W) 22:13:02 145.822/145.860
ZACube-1 29 Aug 22:10:35 22:15:01 72° 258° (WSW) 22:19:23 437.345
AAUSAT CUBESAT 2 29 Aug 22:11:21 22:14:48 26° 265° (W) 22:18:17 437.432
HO-68 29 Aug 22:12:50 22:18:13 22° 268° (W) 22:23:38 435.675
COMPASS 1 29 Aug 22:22:47 22:25:22 16° 268° (W) 22:27:58 437.405
AUBIESAT-1 29 Aug 22:24:13 22:26:36 14° 57° (ENE) 22:29:00 437.475
M-CUBED/EXP-1 PRIME 29 Aug 22:30:48 22:34:10 20° 60° (ENE) 22:37:32 437.505
HUMSAT D 29 Aug 22:37:01 22:40:58 44° 73° (ENE) 22:44:54 437.325/437.525
Cosmos 2499 29 Aug 22:38:51 22:43:16 17° 64° (ENE) 22:47:41 435.465 / 435.565
AIST 2 29 Aug 22:39:45 22:43:03 23° 248° (WSW) 22:46:20 435.215
UNISAT 6 29 Aug 22:46:50 22:48:39 12° 90° (E) 22:50:27 437.425
PRISM 29 Aug 22:49:44 22:53:51 58° 287° (WNW) 22:57:57 437.425
O/OREOS (USA 219) 29 Aug 22:58:34 23:01:20 15° 53° (NE) 23:04:04 437.305
CUBEBUG 1 29 Aug 23:04:08 23:04:55 10° 60° (ENE) 23:05:43 437.445
PCSat 29 Aug 23:05:24 23:08:49 17° 255° (WSW) 23:12:14 145.827
GONETS M04 29 Aug 23:07:21 23:15:40 42° 73° (ENE) 23:23:52
SO-50 29 Aug 23:09:06 23:12:52 23° 112° (ESE) 23:16:37 436.795
Oscar 11 29 Aug 23:15:37 23:18:00 15° 269° (W) 23:20:24 145.826/435.025
ANTELSAT 29 Aug 23:22:04 23:25:52 30° 96° (E) 23:29:38 437.575/2403.000
FUNcube-1 29 Aug 23:26:59 23:28:47 12° 269° (W) 23:30:36 145.935
DELFI C3 29 Aug 23:30:54 23:33:48 20° 266° (W) 23:36:44 145.870
50 SAT 29 Aug 23:41:04 23:43:22 16° 67° (ENE) 23:45:41 437.505
UKube-1 29 Aug 23:51:35 23:54:01 15° 63° (ENE) 23:56:28 .
TIGRISAT 29 Aug 23:52:01 23:56:16 64° 101° (E) 00:00:27 435.000
AISAT 29 Aug 23:53:55 23:57:49 30° 69° (ENE) 00:01:44 437.250
ESTCUBE 1 29 Aug 23:55:02 23:59:24 54° 73° (ENE) 00:03:48 437.505/2401.250
AUBIESAT-1 29 Aug 23:55:50 00:00:28 74° 253° (WSW) 00:05:06 437.475
M-CUBED/EXP-1 PRIME 30 Aug 00:03:44 00:08:17 51° 255° (WSW) 00:12:53 437.505
DANDE 30 Aug 00:11:07 00:12:16 12° 88° (E) 00:13:27 436.750
HUMSAT D 30 Aug 00:14:26 00:16:48 15° 268° (W) 00:19:10 437.325/437.525
UNISAT 6 30 Aug 00:21:32 00:25:44 55° 287° (WNW) 00:29:53 437.425
RS-15 30 Aug 00:23:50 00:32:28 26° 100° (E) 00:41:24 29.354- 29.394
QB50P1 30 Aug 00:25:45 00:29:02 22° 94° (E) 00:32:17 145.935-145.965
Cosmos 2499 30 Aug 00:30:12 00:37:16 81° 265° (W) 00:44:27 435.465 / 435.565
CUSAT 1 30 Aug 00:31:24 00:34:21 52° 284° (WNW) 00:38:06 437.405
POPSAT HIP 1 30 Aug 00:35:45 00:39:23 27° 96° (E) 00:42:57 437.405
CUBEBUG 1 30 Aug 00:36:06 00:40:30 82° 257° (WSW) 00:44:58 437.445
O/OREOS (USA 219) 30 Aug 00:36:37 00:41:10 63° 251° (WSW) 00:45:42 437.305
VELOX 1 30 Aug 00:40:21 00:44:48 90° 269° (W) 00:49:18 145.980
SPROUT 30 Aug 00:42:35 00:46:43 47° 73° (ENE) 00:50:52 437.525
SO-50 30 Aug 00:48:23 00:53:04 46° 308° (NW) 00:57:43 436.795
DX 1 30 Aug 00:49:26 00:53:47 78° 76° (ENE) 00:58:12 434.975-435.025
TISAT 1 30 Aug 00:54:48 00:57:10 15° 64° (ENE) 00:59:33 437.305
ANTELSAT 30 Aug 00:59:04 01:02:26 23° 293° (WNW) 01:05:46 437.575/2403.000
DUCHIFAT 1 30 Aug 01:00:13 01:04:16 46° 99° (E) 01:08:17 145.980
GONETS M04 30 Aug 01:04:16 01:12:29 44° 273° (W) 01:20:39
QB50P2 30 Aug 01:06:22 01:10:35 68° 102° (ESE) 01:14:46 145.880/145.840
JAS-2 30 Aug 01:07:37 01:14:10 41° 97° (E) 01:21:16 435.910
POLYITAN 1 30 Aug 01:08:52 01:13:04 69° 101° (E) 01:17:15 437.675
50 SAT 30 Aug 01:13:32 01:16:43 30° 263° (W) 01:19:55 437.505
NANOSAT C BR1 30 Aug 01:15:09 01:19:23 76° 103° (ESE) 01:23:33 145.865
UKube-1 30 Aug 01:25:23 01:29:36 53° 259° (W) 01:33:53 .
AISAT 30 Aug 01:30:36 01:34:16 25° 265° (W) 01:38:00 437.250
TIGRISAT 30 Aug 01:30:44 01:32:24 12° 298° (WNW) 01:34:04 435.000
ESTCUBE 1 30 Aug 01:34:11 01:36:32 14° 269° (W) 01:38:54 437.505/2401.250
SWISSCUBE 30 Aug 01:38:13 01:39:22 11° 59° (ENE) 01:40:31 437.505
PHONESAT 2.4 30 Aug 01:39:34 01:42:05 24° 156° (SSE) 01:44:35 2401.200-2431.200
BUGSAT 1 30 Aug 01:45:13 01:49:20 64° 102° (ESE) 01:53:21 437.445
DANDE 30 Aug 01:53:19 01:54:51 14° 291° (WNW) 01:56:29 436.750
BEESAT 30 Aug 01:53:35 01:56:03 14° 61° (ENE) 01:58:32 436.000
QB50P1 30 Aug 02:01:07 02:04:50 31° 291° (WNW) 02:08:32 145.935-145.965
Oscar 19 30 Aug 02:02:57 02:06:36 19° 92° (E) 02:10:16 437.125/150
POPSAT HIP 1 30 Aug 02:11:36 02:15:03 25° 292° (WNW) 02:18:28 437.405
SPROUT 30 Aug 02:20:23 02:22:54 15° 268° (W) 02:25:26 437.525
Cosmos 2499 30 Aug 02:26:54 02:29:08 12° 283° (WNW) 02:31:22 435.465 / 435.565
TISAT 1 30 Aug 02:28:15 02:32:23 51° 260° (W) 02:36:33 437.305
RS-15 30 Aug 02:31:44 02:43:20 86° 303° (WNW) 02:55:36 29.354- 29.394
DUCHIFAT 1 30 Aug 02:37:04 02:39:34 16° 296° (WNW) 02:42:03 145.980
ITUPSAT 1 30 Aug 02:40:25 02:44:48 39° 70° (ENE) 02:49:13 437.325
QB50P2 30 Aug 02:44:27 02:45:48 11° 298° (WNW) 02:47:09 145.880/145.840
POLYITAN 1 30 Aug 02:47:02 02:48:18 11° 298° (WNW) 02:49:33 437.675
JAS-2 30 Aug 02:52:45 02:59:07 41° 292° (WNW) 03:06:04 435.910
NANOSAT C BR1 30 Aug 02:53:59 02:54:28 10° 299° (WNW) 02:54:57 145.865
SWISSCUBE 30 Aug 03:11:40 03:16:25 89° 257° (WSW) 03:21:12 437.505
PHONESAT 2.4 30 Aug 03:15:11 03:18:10 66° 172° (S) 03:21:09 2401.200-2431.200
MOZHAYETS 4 30 Aug 03:21:34 03:24:13 15° 63° (ENE) 03:26:51
BUGSAT 1 30 Aug 03:22:46 03:24:09 11° 298° (WNW) 03:25:31 437.445
ITAMSAT 1 30 Aug 03:23:20 03:26:05 14° 91° (E) 03:28:49 435.822/435.867
BEESAT 30 Aug 03:28:32 03:33:16 68° 258° (WSW) 03:38:01 436.000
Gurwin Techsat 1B 30 Aug 03:32:24 03:37:41 61° 101° (ESE) 03:42:56 435.225
Oscar 19 30 Aug 03:41:10 03:46:14 52° 289° (WNW) 03:51:15 437.125/150
ITUPSAT 1 30 Aug 04:19:04 04:22:45 22° 266° (W) 04:26:27 437.325
KKS-1 30 Aug 04:31:40 04:36:07 63° 73° (ENE) 04:40:33 437.445
Cosmos 2491 30 Aug 04:44:00 04:51:06 26° 66° (ENE) 04:58:09 435.465 / 435.565
RS-15 30 Aug 04:47:26 04:57:47 33° 330° (NNW) 05:08:34 29.354- 29.394
AO-85 30 Aug 04:47:28 04:51:35 23° 112° (ESE) 04:55:34 145.980
CUBESAT XI-V 30 Aug 04:48:23 04:51:12 16° 63° (ENE) 04:54:01 437.345
AO-7 30 Aug 04:48:51 04:56:42 44° 100° (E) 05:04:29 29.400- 29.500
PHONESAT 2.4 30 Aug 04:51:28 04:54:27 65° 189° (S) 04:57:24 2401.200-2431.200
MOZHAYETS 4 30 Aug 04:56:26 05:00:54 56° 260° (W) 05:05:25
STARS 30 Aug 05:00:25 05:04:47 63° 74° (ENE) 05:09:11 437.465
ITAMSAT 1 30 Aug 05:00:52 05:06:01 68° 287° (WNW) 05:11:10 435.822/435.867
Gurwin Techsat 1B 30 Aug 05:13:35 05:17:08 18° 298° (WNW) 05:20:40 435.225
HORYU 2 30 Aug 05:45:51 05:48:49 17° 93° (E) 05:51:46 437.375
YUBILEINY 30 Aug 05:57:37 06:04:51 30° 83° (E) 06:12:05 435.215
KKS-1 30 Aug 06:11:16 06:13:04 12° 270° (W) 06:14:53 437.445
CUBESAT XI-V 30 Aug 06:23:37 06:28:07 54° 260° (W) 06:32:41 437.345
AO-85 30 Aug 06:26:40 06:31:48 51° 307° (NW) 06:36:40 145.980
PHONESAT 2.4 30 Aug 06:28:04 06:30:31 23° 205° (SSW) 06:32:57 2401.200-2431.200
Cosmos 2504 30 Aug 06:29:14 06:33:10 14° 78° (ENE) 06:36:58 435.465 / 435.565
GOMX 1 30 Aug 06:34:27 06:36:46 13° 87° (E) 06:39:03 467.674
STARS 30 Aug 06:39:49 06:41:32 12° 270° (W) 06:43:16 437.465
Cosmos 2491 30 Aug 06:39:57 06:48:43 71° 267° (W) 06:57:29 435.465 / 435.565
AO-7 30 Aug 06:41:44 06:49:25 44° 299° (WNW) 06:57:04 29.400- 29.500
RS-15 30 Aug 07:06:28 07:15:38 23° 5° (N) 07:24:55 29.354- 29.394
BRITE-PL 30 Aug 07:09:42 07:15:24 64° 100° (E) 07:20:52 437.365/2234.400
STRAND 1 30 Aug 07:11:38 07:15:58 29° 66° (ENE) 07:20:17 437.568
HORYU 2 30 Aug 07:21:23 07:25:33 42° 289° (WNW) 07:29:42 437.375
NOAA 18 30 Aug 07:23:47 07:28:35 31° 96° (E) 07:33:20 137.9125
SO-50 30 Aug 07:39:53 07:43:34 23° 44° (NE) 07:47:10 436.795
Cubesat XI-IV 30 Aug 07:49:24 07:54:40 60° 101° (E) 07:59:54 437.490
LilacSat-2 30 Aug 07:52:18 07:56:05 76° 100° (E) 07:59:50 437.200
YUBILEINY 30 Aug 07:52:20 08:01:02 61° 282° (WNW) 08:09:47 435.215
NOAA 15 30 Aug 07:52:34 07:57:56 83° 104° (ESE) 08:03:15 137.62
HO-68 30 Aug 07:54:29 07:56:13 11° 86° (E) 07:57:57 435.675
CUTE-I 30 Aug 08:00:19 08:05:40 77° 103° (ESE) 08:10:59 437.470
DOVE 4 30 Aug 08:03:08 08:07:51 41° 97° (E) 08:12:16 437.250
GOMX 1 30 Aug 08:10:06 08:15:31 78° 284° (WNW) 08:20:36 467.674
AO-85 30 Aug 08:12:07 08:13:20 11° 326° (NW) 08:14:33 145.980
Cosmos 2504 30 Aug 08:16:57 08:25:22 81° 95° (E) 08:33:12 435.465 / 435.565
ISS 30 Aug 08:17:59 08:20:58 33° 137° (SE) 08:23:58 145.825
CANX-2 30 Aug 08:22:58 08:25:05 13° 91° (E) 08:27:13 2200.000
CINEMA 3 30 Aug 08:24:47 08:27:40 17° 91° (E) 08:30:27 145.822/145.860
CUTE 1.7 + AOD 2 30 Aug 08:28:32 08:30:38 13° 91° (E) 08:32:45 437.475
Cosmos 2491 30 Aug 08:40:33 08:43:50 13° 287° (WNW) 08:47:07 435.465 / 435.565
AIST 1 30 Aug 08:46:06 08:47:47 12° 84° (E) 08:49:30
BRITE-PL 30 Aug 08:49:16 08:53:16 20° 298° (WNW) 08:57:12 437.365/2234.400
STRAND 1 30 Aug 08:50:23 08:55:01 34° 263° (W) 08:59:39 437.568
NOAA 18 30 Aug 09:04:17 09:09:14 36° 293° (WNW) 09:14:09 137.9125
SO-50 30 Aug 09:19:53 09:24:18 48° 243° (WSW) 09:28:35 436.795
CUSAT 1 30 Aug 09:20:39 09:24:55 17° 66° (ENE) 09:29:34 437.405
RS-15 30 Aug 09:21:17 09:32:49 42° 38° (NE) 09:44:13 29.354- 29.394
SEEDS 30 Aug 09:29:43 09:33:47 46° 99° (E) 09:37:51 437.485
Cubesat XI-IV 30 Aug 09:30:39 09:34:14 19° 298° (WNW) 09:37:49 437.490
NOAA 15 30 Aug 09:34:18 09:36:59 14° 301° (WNW) 09:39:39 137.62
HO-68 30 Aug 09:37:56 09:45:07 72° 104° (ESE) 09:52:14 435.675
PRISM 30 Aug 09:38:44 09:42:49 82° 255° (WSW) 09:46:59 437.425
FUNcube-1 30 Aug 09:38:59 09:39:18 10° 89° (E) 09:39:39 145.935
DOVE 4 30 Aug 09:41:22 09:45:14 23° 295° (WNW) 09:48:56 437.250
CUTE-I 30 Aug 09:42:08 09:45:03 15° 300° (WNW) 09:47:56 437.470
UNISAT 6 30 Aug 09:45:57 09:48:08 13° 63° (ENE) 09:50:18 437.425
GOMX 1 30 Aug 09:51:09 09:52:34 11° 303° (WNW) 09:53:58 467.674
UWE-3 30 Aug 09:51:17 09:54:47 25° 95° (E) 09:58:14 435.000/436.395/437.385
AAUSAT CUBESAT 2 30 Aug 09:52:38 09:56:39 44° 99° (E) 10:00:39 437.432
ISS 30 Aug 09:54:25 09:57:25 32° 334° (NNW) 10:00:27 145.825
YUBILEINY 30 Aug 09:57:06 09:59:58 12° 305° (NW) 10:02:52 435.215
CANX-2 30 Aug 09:57:07 10:01:14 51° 286° (WNW) 10:05:22 2200.000
CUBEBUG 2 30 Aug 09:59:19 10:03:25 48° 99° (E) 10:07:25 437.445
ZACube-1 30 Aug 09:59:38 10:02:43 20° 93° (E) 10:05:48 437.345
BEESAT 2 30 Aug 10:00:09 10:03:48 37° 116° (ESE) 10:07:29 435.950
CINEMA 3 30 Aug 10:00:49 10:05:04 42° 289° (WNW) 10:09:06 145.822/145.860
CUTE 1.7 + AOD 2 30 Aug 10:02:38 10:06:46 51° 286° (WNW) 10:10:53 437.475
COMPASS 1 30 Aug 10:03:28 10:07:40 78° 102° (ESE) 10:11:52 437.405
BEESAT 3 30 Aug 10:12:08 10:16:01 79° 303° (WNW) 10:19:59 437.485
Cosmos 2504 30 Aug 10:13:43 10:19:32 21° 294° (WNW) 10:25:08 435.465 / 435.565
AIST 1 30 Aug 10:20:33 10:24:49 56° 280° (W) 10:29:10
ANTELSAT 30 Aug 10:20:45 10:24:42 29° 69° (ENE) 10:28:35 437.575/2403.000
DANDE 30 Aug 10:43:18 10:48:11 27° 74° (ENE) 10:54:06 436.750
TIGRISAT 30 Aug 10:50:12 10:54:42 57° 73° (ENE) 10:59:06 435.000
Oscar 11 30 Aug 11:00:18 11:04:38 81° 284° (WNW) 11:08:56 145.826/435.025
CUSAT 1 30 Aug 11:00:46 11:07:31 86° 81° (E) 11:15:26 437.405
SEEDS 30 Aug 11:06:33 11:09:07 16° 295° (WNW) 11:11:41 437.485
DELFI C3 30 Aug 11:07:00 11:10:54 48° 99° (E) 11:14:48 145.870
FUNcube-1 30 Aug 11:11:53 11:15:59 63° 285° (WNW) 11:20:03 145.935
Cosmos 2499 30 Aug 11:18:05 11:21:50 14° 78° (ENE) 11:25:28 435.465 / 435.565
QB50P1 30 Aug 11:18:42 11:21:34 18° 65° (ENE) 11:24:27 145.935-145.965
UNISAT 6 30 Aug 11:19:46 11:24:19 65° 258° (WSW) 11:28:49 437.425
JAS-2 30 Aug 11:23:56 11:26:32 14° 56° (NE) 11:29:13 435.910
HO-68 30 Aug 11:26:45 11:32:10 24° 302° (WNW) 11:37:34 435.675
UWE-3 30 Aug 11:27:44 11:31:11 25° 291° (WNW) 11:34:34 435.000/436.395/437.385
POPSAT HIP 1 30 Aug 11:28:30 11:31:49 22° 67° (ENE) 11:35:07 437.405
AAUSAT CUBESAT 2 30 Aug 11:29:13 11:31:46 16° 295° (WNW) 11:34:19 437.432
ISS 30 Aug 11:32:44 11:34:39 14° 354° (N) 11:36:34 145.825
RS-15 30 Aug 11:34:04 11:46:21 73° 244° (WSW) 11:58:22 29.354- 29.394
ZACube-1 30 Aug 11:35:23 11:39:06 32° 290° (WNW) 11:42:46 437.345
CUBEBUG 2 30 Aug 11:37:17 11:39:37 15° 296° (WNW) 11:41:55 437.445
BEESAT 2 30 Aug 11:38:37 11:41:44 22° 314° (NW) 11:44:52 435.950
ESTCUBE 1 30 Aug 11:49:39 11:51:09 11° 90° (E) 11:52:41 437.505/2401.250
DUCHIFAT 1 30 Aug 11:51:59 11:55:51 34° 70° (ENE) 11:59:43 145.980
BEESAT 3 30 Aug 11:53:29 11:54:22 11° 322° (NW) 11:55:16 437.485
HUMSAT D 30 Aug 11:55:26 11:59:32 85° 103° (ESE) 12:03:39 437.325/437.525
ANTELSAT 30 Aug 11:57:29 12:01:21 27° 264° (W) 12:05:11 437.575/2403.000
QB50P2 30 Aug 11:58:41 12:02:49 50° 73° (ENE) 12:06:58 145.880/145.840
POLYITAN 1 30 Aug 12:01:11 12:05:20 51° 73° (ENE) 12:09:29 437.675
PCSat 30 Aug 12:02:04 12:07:22 60° 115° (ESE) 12:12:43 145.827
NANOSAT C BR1 30 Aug 12:06:56 12:11:06 55° 73° (ENE) 12:15:16 145.865
GONETS M04 30 Aug 12:08:23 12:16:34 47° 88° (E) 12:24:51
DANDE 30 Aug 12:25:23 12:30:58 50° 264° (W) 12:38:03 436.750
CUBEBUG 1 30 Aug 12:25:35 12:28:41 18° 93° (E) 12:31:44 437.445
TIGRISAT 30 Aug 12:29:19 12:31:41 14° 269° (W) 12:34:02 435.000
VELOX 1 30 Aug 12:31:29 12:34:25 17° 92° (E) 12:37:20 145.980
BUGSAT 1 30 Aug 12:34:34 12:38:37 44° 72° (ENE) 12:42:39 437.445
AIST 2 30 Aug 12:36:09 12:40:14 72° 120° (ESE) 12:44:22 435.215
DX 1 30 Aug 12:39:16 12:41:24 13° 91° (E) 12:43:31 434.975-435.025
50 SAT 30 Aug 12:41:46 12:44:27 19° 95° (E) 12:47:08 437.505
DELFI C3 30 Aug 12:43:17 12:45:20 14° 295° (WNW) 12:47:23 145.870
CUSAT 1 30 Aug 12:44:29 12:48:59 19° 274° (W) 12:53:53 437.405
QB50P1 30 Aug 12:52:59 12:57:01 41° 261° (W) 13:01:05 145.935-145.965
POPSAT HIP 1 30 Aug 13:03:33 13:07:24 32° 263° (W) 13:11:16 437.405
JAS-2 30 Aug 13:05:31 13:10:44 82° 257° (WSW) 13:16:24 435.910
Cosmos 2499 30 Aug 13:05:43 13:13:51 84° 96° (E) 13:21:23 435.465 / 435.565
AUBIESAT-1 30 Aug 13:09:36 13:13:35 83° 105° (ESE) 13:17:15 437.475
ISS 30 Aug 13:09:47 13:12:06 17° 14° (NNE) 13:14:24 145.825
O/OREOS (USA 219) 30 Aug 13:11:53 13:14:20 15° 99° (E) 13:16:48 437.305
UKube-1 30 Aug 13:12:47 13:16:19 24° 95° (E) 13:19:50 .
Gurwin Techsat 1B 30 Aug 13:17:08 13:19:39 14° 59° (ENE) 13:22:10 435.225
M-CUBED/EXP-1 PRIME 30 Aug 13:18:00 13:22:01 62° 291° (WNW) 13:25:42 437.505
AO-85 30 Aug 13:19:09 13:22:14 19° 42° (NE) 13:25:10 145.980
Oscar 19 30 Aug 13:19:36 13:23:59 29° 66° (ENE) 13:28:24 437.125/150
AISAT 30 Aug 13:19:39 13:24:06 60° 102° (ESE) 13:28:28 437.250
ESTCUBE 1 30 Aug 13:23:53 13:28:25 68° 286° (WNW) 13:32:55 437.505/2401.250
DUCHIFAT 1 30 Aug 13:28:28 13:31:37 20° 266° (W) 13:34:46 145.980
QB50P2 30 Aug 13:36:38 13:38:54 14° 269° (W) 13:41:10 145.880/145.840
POLYITAN 1 30 Aug 13:39:11 13:41:25 14° 269° (W) 13:43:38 437.675
NANOSAT C BR1 30 Aug 13:45:15 13:47:09 13° 269° (W) 13:49:03 145.865
PCSat 30 Aug 13:46:55 13:51:10 23° 314° (NW) 13:55:27 145.827
RS-15 30 Aug 13:49:51 13:56:30 17° 265° (W) 14:03:08 29.354- 29.394
AO-7 30 Aug 14:00:39 14:04:38 14° 45° (NE) 14:08:36 29.400- 29.500
CUBEBUG 1 30 Aug 14:00:58 14:05:07 40° 289° (WNW) 14:09:15 437.445
SPROUT 30 Aug 14:04:00 14:08:18 88° 283° (WNW) 14:12:33 437.525
GONETS M04 30 Aug 14:05:29 14:13:29 39° 288° (WNW) 14:21:38
VELOX 1 30 Aug 14:06:50 14:11:06 44° 288° (WNW) 14:15:19 145.980
BUGSAT 1 30 Aug 14:11:34 14:14:11 16° 268° (W) 14:16:48 437.445
TISAT 1 30 Aug 14:12:32 14:15:53 23° 95° (E) 14:19:12 437.305
DX 1 30 Aug 14:13:37 14:17:55 55° 287° (WNW) 14:22:11 434.975-435.025
50 SAT 30 Aug 14:14:56 14:18:01 26° 290° (WNW) 14:21:06 437.505
AIST 2 30 Aug 14:16:49 14:19:12 15° 319° (NW) 14:21:36 435.215
ITAMSAT 1 30 Aug 14:40:53 14:44:56 24° 64° (ENE) 14:49:00 435.822/435.867
ISS 30 Aug 14:45:48 14:49:04 63° 33° (NNE) 14:52:19 145.825
UKube-1 30 Aug 14:48:33 14:52:21 30° 291° (WNW) 14:56:08 .
O/OREOS (USA 219) 30 Aug 14:48:50 14:53:14 53° 296° (WNW) 14:57:41 437.305
Gurwin Techsat 1B 30 Aug 14:53:32 14:58:51 85° 256° (WSW) 15:04:12 435.225
AISAT 30 Aug 14:57:42 15:00:02 14° 298° (WNW) 15:02:23 437.250
Oscar 19 30 Aug 14:58:28 15:03:10 35° 263° (W) 15:07:56 437.125/150
AO-85 30 Aug 14:58:55 15:03:01 50° 242° (WSW) 15:06:50 145.980
Cosmos 2499 30 Aug 15:02:32 15:07:47 19° 295° (WNW) 15:12:50 435.465 / 435.565
SWISSCUBE 30 Aug 15:12:22 15:16:08 23° 95° (E) 15:19:52 437.505
